Simultaneous Nadir Overpasses (SNOs) Predictions

Prediction of SNOs between LANDSAT-8 and NPP Satellite Orbit:

Table of predicted SNOs for the next 14.0 days since TLE Epoch: 4/15/2014
Index Date (LANDSAT-8) Time (LANDSAT-8) Lat,Lon (LANDSAT-8) SZA (LANDSAT-8 ) Date (NPP) Time (NPP) Lat,Lon (NPP) SZA (NPP ) Distance(km) Time Diff (sec)
1 04/17/2014 11:23:57 -70.50,-174.13 120.12 04/17/2014 11:23:07 -70.49,-174.09 120.12 1.71 50
2 04/17/2014 12:13:24 70.38, -6.65 59.76 04/17/2014 12:13:52 70.42, -6.65 59.79 3.63 28
3 04/20/2014 02:50:44 70.99, 134.87 59.45 04/20/2014 02:49:34 71.01, 133.50 59.50 49.58 70
4 04/20/2014 03:40:22 -70.45, -58.32 121.10 04/20/2014 03:40:07 -70.46, -58.26 121.09 2.30 15
5 04/20/2014 04:29:48 70.39, 109.24 58.83 04/20/2014 04:30:52 70.38, 109.17 58.82 2.77 64
6 04/22/2014 19:07:16 70.52,-109.94 58.08 04/22/2014 19:06:25 70.51,-109.90 58.07 2.04 51
7 04/22/2014 19:56:46 -70.42, 57.54 122.04 04/22/2014 19:57:07 -70.43, 57.55 122.03 0.96 21
8 04/25/2014 10:34:02 -71.18,-160.69 122.15 04/25/2014 10:32:53 -71.24,-162.66 122.05 71.02 69
9 04/25/2014 11:23:40 70.46, 5.86 57.14 04/25/2014 11:23:25 70.49, 5.90 57.16 3.21 15
10 04/25/2014 12:13:09 -70.42, 173.42 122.93 04/25/2014 12:14:07 -70.40, 173.36 122.94 2.88 58
11 04/28/2014 02:50:35 -70.55, -45.76 123.63 04/28/2014 02:49:39 -70.54, -45.73 123.63 1.28 56
12 04/28/2014 03:40:02 70.43, 121.70 56.24 04/28/2014 03:40:23 70.42, 121.77 56.23 2.59 21
